Bradford, PA

1:00 PM EDT on October 17, 2019 (GMT -0400)
Bradford Regional

Weather History for KBFD - August, 2019

Change the Weather History Date:

Monday, August 19, 2019

  Actual Average Record
Temperature  
Mean Temperature 70 °F 64 °F  
Max Temperature 80 °F 76 °F 86 °F (1978)
Min Temperature 60 °F 52 °F 37 °F (1977)
Degree Days  
Heating Degree Days 0 1  
Month to date heating degree days 11 11  
Since 1 June heating degree days 145 220  
Since 1 July heating degree days 23 75  
Cooling Degree Days 5 2  
Month to date cooling degree days 51 38  
Year to date cooling degree days 241 162  
Since 1 June cooling degree days 234 152  
Growing Degree Days 20 (Base 50)    
Moisture  
Dew Point 63 °F    
Average Humidity 77    
Maximum Humidity 100    
Minimum Humidity 54    
Precipitation  
Precipitation 0.01 in 0.14 in 1.58 in (1967)
Month to date precipitation 3.66 2.54  
Year to date precipitation 31.63 28.38  
Sea Level Pressure  
Sea Level Pressure 30.06 in    
Wind  
Wind Speed 5 mph (WNW)    
Max Wind Speed 18 mph    
Max Gust Speed 26 mph    
Visibility 8 miles    
Events Rain    
T = Trace of Precipitation, MM = Missing Value Source: NWS Daily Summary

Daily Weather History Graph

Daily Weather History Graph

Search for Another Location

Airport or City:

Astronomy

Aug. 19, 2019 Rise Set
Actual Time 6:26 AM EDT 8:08 PM EDT
Civil Twilight 5:57 AM EDT 8:38 PM EDT
Nautical Twilight 5:21 AM EDT 9:14 PM EDT
Astronomical Twilight 4:42 AM EDT 9:52 PM EDT
Moon 10:26 PM EDT (8/19) 10:09 AM EDT (8/19)
Length of Visible Light 14h 41m
Length of Day
13h 42m
Waning Gibbous, 85% of the Moon is Illuminated
Aug 19
Waning Gibbous
Aug 23
Last Quarter
Aug 30
New
Sep 5
First Quarter
Sep 14
Full

Hourly Weather History & Observations

Time (EDT) Temp. Heat Index Dew Point Humidity Pressure Visibility Wind Dir Wind Speed Gust Speed Precip Events Conditions
12:53 AM 68.0 °F - 61.0 °F 78% 29.96 in 10.0 mi Calm Calm - N/A   Clear
1:53 AM 66.9 °F - 60.1 °F 79% 29.96 in 10.0 mi SSW 3.5 mph - N/A   Clear
2:53 AM 68.0 °F - 61.0 °F 78% 29.94 in 10.0 mi South 4.6 mph - N/A   Clear
3:53 AM 66.9 °F - 63.0 °F 87% 29.99 in 10.0 mi WNW 15.0 mph 20.7 mph 0.00 in Rain Light Rain
4:53 AM 64.9 °F - 63.0 °F 93% 29.97 in 10.0 mi Calm Calm - 0.01 in   Scattered Clouds
5:53 AM 64.0 °F - 63.0 °F 96% 29.96 in 10.0 mi ESE 4.6 mph - 0.00 in   Mostly Cloudy
6:53 AM 63.0 °F - 63.0 °F 100% 29.98 in 7.0 mi Calm Calm - N/A   Clear
7:53 AM 64.9 °F - 64.0 °F 97% 30.02 in 10.0 mi WNW 3.5 mph - N/A   Clear
8:53 AM 68.0 °F - 63.0 °F 84% 30.04 in 10.0 mi West 5.8 mph - N/A   Clear
9:53 AM 71.1 °F - 63.0 °F 75% 30.06 in 10.0 mi Variable 5.8 mph - N/A   Clear
10:39 AM 72.0 °F - 64.0 °F 76% 30.10 in 10.0 mi NW 11.5 mph - N/A   Mostly Cloudy
10:53 AM 72.0 °F - 64.0 °F 76% 30.07 in 10.0 mi WNW 8.1 mph - N/A   Overcast
11:10 AM 73.9 °F - 64.0 °F 71% 30.11 in 10.0 mi NW 10.4 mph - N/A   Overcast
11:53 AM 73.9 °F - 63.0 °F 68% 30.07 in 10.0 mi NW 5.8 mph - N/A   Mostly Cloudy
12:01 PM 73.9 °F - 63.0 °F 68% 30.11 in 10.0 mi NW 9.2 mph - N/A   Overcast
12:18 PM 75.0 °F - 63.0 °F 66% 30.11 in 10.0 mi WNW 9.2 mph - N/A   Overcast
12:53 PM 75.9 °F - 64.0 °F 67% 30.07 in 10.0 mi West 8.1 mph - N/A   Overcast
1:53 PM 75.9 °F - 64.0 °F 67% 30.07 in 10.0 mi WNW 8.1 mph - N/A   Mostly Cloudy
2:53 PM 78.1 °F - 62.1 °F 58% 30.06 in 10.0 mi NW 11.5 mph - N/A   Mostly Cloudy
3:53 PM 80.1 °F 81.5 °F 63.0 °F 56% 30.04 in 10.0 mi NW 6.9 mph - N/A   Mostly Cloudy
4:53 PM 79.0 °F - 62.1 °F 56% 30.05 in 10.0 mi WNW 8.1 mph - N/A   Scattered Clouds
5:53 PM 78.1 °F - 64.0 °F 62% 30.05 in 10.0 mi WNW 6.9 mph - N/A   Mostly Cloudy
6:53 PM 75.9 °F - 63.0 °F 64% 30.05 in 10.0 mi WNW 8.1 mph - N/A   Clear
7:53 PM 73.0 °F - 64.0 °F 73% 30.05 in 10.0 mi WNW 3.5 mph - N/A   Scattered Clouds
8:53 PM 68.0 °F - 64.0 °F 87% 30.07 in 10.0 mi NW 4.6 mph - N/A   Clear
9:53 PM 64.9 °F - 63.0 °F 93% 30.10 in 10.0 mi Calm Calm - N/A   Clear
10:51 PM 62.6 °F - 62.6 °F 100% 30.15 in 2.0 mi Calm Calm - N/A   Clear
10:53 PM 62.1 °F - 62.1 °F 100% 30.12 in 3.0 mi Calm Calm - N/A   Clear
11:07 PM 62.1 °F - 61.0 °F 96% 30.15 in 1.8 mi Calm Calm - N/A   Clear
11:32 PM 61.0 °F - 61.0 °F 100% 30.15 in 3.0 mi Calm Calm - N/A   Clear
11:38 PM 61.0 °F - 60.1 °F 97% 30.15 in 1.5 mi Calm Calm - N/A   Clear
11:53 PM 61.0 °F - 60.1 °F 97% 30.12 in 2.0 mi Calm Calm - N/A   Clear